STARLINK-1663, 46535

Orbit data source: Space-Track

STARLINK-1663, 46535 is a payload satellite owned by SpaceX/Seattle (US) in LEO that was launched on Tue, 06 Oct 2020 UTC via an FALCON 9 launch vehicle from the Air Force Eastern Test Range (AFETR). Payload-class satellites include a variety of spacecraft equipped with specific instruments for various scientific and technological missions. These include communications satellites like Starlink; space stations such as the ISS; scientific satellites like the Hubble; Earth observation satellites from companies like Planet Labs, Umbra, and HawkEye 360; GPS; miniature CubeSats for education and research; and military/defense satellites.

Not visible in the next 10 days
Identifier
46535, 2020-070D
Orbit
LEO
Country
Flag of USUS
Related business
Manufacturer
SpaceX/Seattle
Mission
Partially operational Commercial Communications
Bus & Motor
STARLINK, Unknown motor
Mass
260 kg wet, ~248 kg dry
Launch date (UTC)
2020-10-06 (6 years ago)
Launch vehicle
FALCON 9
Launch site
Air Force Eastern Test Range (AFETR)
Object type
Payload
Rocket body
Debris
Shape & HBR
Box + 1 Pan, 10.1 m
Radar Cross Section
13.562 m², Large (>1 m²)

Expand to show TLE details & history
Last TLE update: 4 hours ago

TLE from 4 hours ago
0 STARLINK-1663
1 46535U 20070D   26168.50762205  .00428760  90986-4  77828-3 0  9990
2 46535  53.0290 356.2864 0003431 283.0144  77.0503 16.00942532315835
Epoch: 2026-06-17T12:10Z
TLE epoch observation values (Epoch: 2026-06-17T12:10:58.545Z)
Latitude
0.00004°
Longitude
-92.22181°
Altitude
272.209 km
Speed
7.746 km/s
True Right ascension
23h 45m 08s
True Declination
0° 00' 00"
Sunlit
Object was in daylight at epoch
Visualization orbit readout
Latitude
Unknown
Longitude
Unknown
Altitude
Unknown
Speed
Unknown
Apparent Right ascension
Unknown
Apparent Declination
Unknown
Sunlit
N/A
Visualization observer readout
Local Sidereal Time
02:50:19
Azimuth
Unknown
Elevation
Unknown
Doppler factor
Unknown
Orbital elements
Apogee altitude
274.375 km
Perigee altitude
269.812 km
Semi-major axis
6,650.23 km
Eccentricity
0.00034
Inclination
53.029°
RAAN
356.2864°
Arg. of periapsis
283.0144°
True anomaly
77.08862°
Mean anomaly
77.0503°
Eccentric anomaly
77.06946°
Mean motion
4.0021 °/min
Orbital period
89.95 mins
BSTAR
0.00077828
Loading maneuver chart data...
Computing Atmospheric mass density...

Documentation

Showing up to 5 results
|